Location: Newark
(41.0400°S, 62.7845°W)
Time: 08:11:49
(UTC+00:00)

Transit 2A - Pass Details

Date: 09 December 2021
Orbit: 591 x 967 km, 66.7° (Epoch: 19 January)

Event Time Altitude Azimuth Distance (km) Brightness Sun altitude
Rises 00:25:49 0° 215° (SW) 2,869 10.8 -8.6°
Reaches altitude 10° 00:28:04 10° 220° (SW) 1,972 9.8 -9.0°
Maximum altitude 00:32:20 51° 295° (WNW) 798 6.3 -9.6°
Drops below altitude 10° 00:36:49 10° 10° (N) 2,072 7.8 -10.2°
Enters shadow 00:37:16 - 12° (NNE) 2,251 7.9 -10.2°
Sets 00:39:14 0° 15° (NNE) 3,029 - -10.5°
